Change the Weather History Date:

Friday, September 13, 2013

  Actual Average Record
Temperature  
Mean Temperature 63 °F 66 °F  
Max Temperature 75 °F 77 °F 91 °F (1991)
Min Temperature 50 °F 55 °F 38 °F (2014)
Degree Days  
Heating Degree Days 2 2  
Month to date heating degree days 2 17  
Since 1 July heating degree days 11 25  
Cooling Degree Days 0 3  
Month to date cooling degree days 150 61  
Year to date cooling degree days 1019 899  
Growing Degree Days 12 (Base 50)    
Moisture  
Dew Point 45 °F    
Average Humidity 56    
Maximum Humidity 83    
Minimum Humidity 29    
Precipitation  
Precipitation 0.00 in 0.11 in 1.70 in (1972)
Month to date precipitation 1.31 1.83  
Sea Level Pressure  
Sea Level Pressure 30.16 in    
Wind  
Wind Speed 4 mph (ENE)    
Max Wind Speed 13 mph    
Max Gust Speed 16 mph    
Visibility 10 miles    
Events      
T = Trace of Precipitation, MM = Missing Value Source: NWS Daily Summary

Daily Weather History Graph

Daily Weather History Graph

Search for Another Location

Airport or City:

Trip Planner

Search our weather history database for the weather conditions in past years. The results will help you decide how hot, cold, wet, or windy it might be!

Date:

Astronomy

Sep. 13, 2013 Rise Set
Actual Time 6:54 AM CDT 7:27 PM CDT
Civil Twilight 6:27 AM CDT 7:54 PM CDT
Nautical Twilight 5:54 AM CDT 8:27 PM CDT
Astronomical Twilight 5:21 AM CDT 9:00 PM CDT
Moon 3:19 PM CDT (9/13) 12:23 AM CDT (9/13)
Length of Visible Light 13h 27m
Length of Day
12h 32m
First Quarter, 61% of the Moon is Illuminated
Sep 13
First Quarter
Sep 19
Full
Sep 26
Last Quarter
Oct 4
New
Oct 11
First Quarter

Hourly Weather History & Observations

Time (CDT) Temp. Dew Point Humidity Pressure Visibility Wind Dir Wind Speed Gust Speed Precip Events Conditions
12:53 AM 57.9 °F 46.9 °F 67% 30.17 in 10.0 mi North 4.6 mph - N/A   Clear
1:53 AM 55.9 °F 46.9 °F 72% 30.17 in 10.0 mi North 5.8 mph - N/A   Clear
2:53 AM 55.0 °F 48.0 °F 77% 30.17 in 10.0 mi North 5.8 mph - N/A   Clear
3:53 AM 54.0 °F 46.9 °F 77% 30.17 in 10.0 mi North 3.5 mph - N/A   Clear
4:53 AM 53.1 °F 46.9 °F 80% 30.18 in 10.0 mi Calm Calm - N/A   Clear
5:53 AM 52.0 °F 46.9 °F 83% 30.19 in 10.0 mi Calm Calm - N/A   Clear
6:53 AM 51.1 °F 46.9 °F 86% 30.21 in 10.0 mi North 3.5 mph - N/A   Clear
7:53 AM 53.1 °F 48.0 °F 83% 30.23 in 10.0 mi NNE 4.6 mph - N/A   Clear
8:53 AM 57.9 °F 50.0 °F 75% 30.22 in 10.0 mi NNE 4.6 mph - N/A   Clear
9:53 AM 63.0 °F 48.9 °F 60% 30.24 in 10.0 mi Variable 5.8 mph - N/A   Clear
10:53 AM 66.0 °F 46.9 °F 50% 30.23 in 10.0 mi East 5.8 mph - N/A   Clear
11:53 AM 68.0 °F 45.0 °F 43% 30.22 in 10.0 mi Variable 3.5 mph - N/A   Clear
12:53 PM 70.0 °F 45.0 °F 41% 30.19 in 10.0 mi Variable 6.9 mph - N/A   Clear
1:53 PM 72.0 °F 43.0 °F 35% 30.17 in 10.0 mi Variable 6.9 mph - N/A   Clear
2:53 PM 72.0 °F 42.1 °F 34% 30.15 in 10.0 mi NE 8.1 mph - N/A   Clear
3:53 PM 73.9 °F 41.0 °F 30% 30.13 in 10.0 mi NNE 6.9 mph - N/A   Clear
4:53 PM 73.0 °F 39.9 °F 30% 30.13 in 10.0 mi ESE 6.9 mph - N/A   Clear
5:53 PM 72.0 °F 41.0 °F 33% 30.12 in 10.0 mi ESE 4.6 mph - N/A   Clear
6:53 PM 70.0 °F 42.1 °F 36% 30.11 in 10.0 mi East 3.5 mph - N/A   Clear
7:53 PM 66.0 °F 43.0 °F 43% 30.10 in 10.0 mi East 3.5 mph - N/A   Clear
8:53 PM 64.0 °F 43.0 °F 46% 30.11 in 10.0 mi East 3.5 mph - N/A   Clear
9:53 PM 62.1 °F 43.0 °F 50% 30.12 in 10.0 mi East 3.5 mph - N/A   Clear
10:53 PM 61.0 °F 42.1 °F 50% 30.11 in 10.0 mi Calm Calm - N/A   Clear
11:53 PM 60.1 °F 41.0 °F 49% 30.11 in 10.0 mi SE 3.5 mph - N/A   Clear